1486983601.1,19458,11.13,74236.3,1.69,-41.61,-42.05,0,*73
1486983602.32,19459,11.13,74236.8,1.67,-41.49,-41.87,0,*7F
1486983603.57,19460,11.13,74236.3,1.67,-42.25,-42.57,0,*72
1486983604.84,19461,11.13,74236.3,1.67,-42.19,-42.45,0,*7F
1486983606.1,19462,11.13,74236.5,1.69,-42.19,-42.31,0,*71
1486983607.35,19463,11.13,74236.3,1.67,-42.37,-42.57,0,*72
1486983608.59,19464,11.13,74236.0,1.67,-41.61,-41.81,0,*7D
1486983609.84,19465,11.13,74236.8,1.67,-42.69,-42.89,0,*7C
1486983611.06,19466,11.13,74238.0,1.69,-43.81,-44.07,0,*76
1486983612.33,19467,11.13,74238.0,1.67,-42.57,-42.69,0,*7D
1486983613.58,19468,11.13,74234.5,1.67,-42.37,-42.45,0,*7A
1486983614.8,19469,11.13,74236.0,1.67,-43.61,-43.87,0,*76
1486983616.0,19470,11.13,74236.0,1.65,-42.25,-42.37,0,*77
1486983617.22,19471,11.13,74236.8,1.65,-41.23,-41.49,0,*79
1486983618.48,19472,11.19,74240.5,1.67,-42.19,-42.63,0,*79
1486983619.67,19473,11.13,74238.3,1.65,-41.41,-41.49,0,*7F
1486983620.9,19474,11.19,74240.5,1.67,-41.03,-41.03,0,*72
1486983622.13,19475,11.13,74238.3,1.67,-41.87,-41.99,0,*7C
1486983623.35,19476,11.13,74240.0,1.69,-41.93,-41.99,0,*74
1486983624.61,19477,11.13,74236.3,1.67,-41.03,-40.97,0,*7D
1486983625.86,19478,11.13,74236.3,1.69,-42.57,-42.83,0,*79
1486983627.1,19479,11.13,74236.8,1.67,-42.51,-42.83,0,*70
1486983628.33,19480,11.13,74236.5,1.69,-42.63,-42.95,0,*7E
1486983629.58,19481,11.13,74238.8,1.67,-41.23,-41.49,0,*74
1486983630.8,19482,11.13,74236.8,1.69,-41.61,-41.93,0,*78
1486983632.08,19483,11.13,74238.3,1.71,-42.31,-42.57,0,*7D
1486983633.27,19484,11.13,74238.0,1.69,-43.35,-43.61,0,*72
1486983634.51,19485,11.13,74236.0,1.69,-42.19,-42.51,0,*7E
1486983635.76,19486,11.13,74238.5,1.67,-42.45,-42.63,0,*7B
1486983636.99,19487,11.13,74236.0,1.69,-42.63,-42.95,0,*79
1486983638.25,19488,11.13,74240.5,1.67,-43.21,-43.29,0,*79
1486983639.48,19489,11.19,74242.5,1.69,-41.55,-41.73,0,*7A
1486983640.68,19490,11.13,74236.8,1.69,-41.41,-41.61,0,*74
1486983641.88,19491,11.13,74236.3,1.69,-41.17,-41.41,0,*74
1486983643.12,19492,11.13,74234.8,1.69,-41.55,-41.81,0,*7D
1486983644.34,19493,11.13,74234.8,1.67,-42.63,-43.01,0,*7E
1486983645.57,19494,11.13,74240.8,1.69,-42.83,-43.15,0,*7C
1486983646.81,19495,11.13,74238.5,1.69,-41.81,-41.93,0,*70
1486983648.04,19496,11.13,74238.3,1.69,-42.57,-42.75,0,*70
1486983649.28,19497,11.13,74236.8,1.67,-44.07,-44.47,0,*7B
1486983650.53,19498,11.13,74236.0,1.67,-43.21,-43.41,0,*76
1486983651.75,19499,11.13,74238.8,1.69,-41.93,-41.99,0,*75
1486983652.97,19500,11.13,74242.0,1.67,-42.63,-42.89,0,*74
1486983654.22,19501,11.13,74234.5,1.67,-42.45,-42.63,0,*75
1486983655.5,19502,11.13,74238.0,1.67,-41.81,-41.81,0,*72
1486983656.72,19503,11.13,74236.5,1.67,-41.61,-41.87,0,*7B
1486983657.97,19504,11.13,74238.8,1.67,-42.45,-42.63,0,*70
1486983659.25,19505,11.13,74238.5,1.67,-41.81,-41.81,0,*75
1486983660.47,19506,11.13,74236.5,1.69,-41.93,-42.13,0,*73
1486983661.72,19507,11.13,74238.5,1.67,-41.61,-41.67,0,*71
1486983662.92,19508,11.13,74238.3,1.69,-41.11,-41.11,0,*76
1486983664.2,19509,11.13,74238.5,1.67,-42.45,-42.69,0,*77
1486983665.4,19510,11.13,74232.8,1.69,-42.37,-42.51,0,*7F
1486983666.64,19511,11.13,74240.0,1.67,-41.55,-41.99,0,*70
1486983667.9,19512,11.13,74238.5,1.69,-41.23,-41.55,0,*7C
1486983669.13,19513,11.13,74232.0,1.69,-42.57,-42.75,0,*7C
1486983670.32,19514,11.13,74236.5,1.69,-43.41,-43.87,0,*71
1486983671.57,19515,11.13,74238.5,1.67,-43.21,-43.41,0,*72
1486983672.82,19516,11.13,74236.8,1.67,-42.37,-42.57,0,*71
1486983674.07,19517,11.13,74238.0,1.67,-42.19,-42.25,0,*79
1486983675.32,19518,11.13,74238.5,1.67,-41.87,-42.05,0,*70
1486983676.55,19519,11.13,74236.0,1.69,-42.13,-42.31,0,*76
1486983677.82,19520,11.13,74236.8,1.67,-42.45,-42.69,0,*7C
1486983679.05,19521,11.13,74236.8,1.69,-41.41,-41.55,0,*78
1486983680.25,19522,11.13,74236.0,1.69,-41.41,-41.61,0,*7C
1486983681.44,19523,11.13,74242.8,1.69,-43.35,-43.61,0,*7E
1486983682.67,19524,11.13,74238.8,1.69,-42.83,-43.01,0,*73
1486983683.87,19525,11.13,74238.3,1.69,-41.41,-41.61,0,*7B
1486983685.09,19526,11.13,74234.8,1.69,-41.99,-42.19,0,*71
1486983686.29,19527,11.13,74236.5,1.69,-42.75,-43.01,0,*79
1486983687.54,19528,11.13,74238.8,1.69,-42.31,-42.57,0,*74
1486983688.8,19529,11.13,74238.5,1.71,-42.13,-42.19,0,*76
1486983690.0,19530,11.13,74232.3,1.69,-42.37,-42.51,0,*7D
1486983691.22,19531,11.13,74236.8,1.71,-41.99,-42.13,0,*74
1486983692.45,19532,11.13,74236.8,1.69,-41.81,-41.99,0,*76
1486983693.67,19533,11.13,74238.8,1.69,-41.61,-41.93,0,*73
1486983694.89,19534,11.13,74234.3,1.69,-41.41,-41.55,0,*7C
1486983696.09,19535,11.13,74236.8,1.69,-42.75,-43.01,0,*7A
1486983697.33,19536,11.13,74234.3,1.71,-43.01,-43.15,0,*77
1486983698.53,19537,11.13,74236.5,1.69,-42.37,-42.51,0,*7A
1486983699.73,19538,11.13,74238.3,1.69,-41.61,-41.61,0,*75
1486983700.96,19539,11.13,74236.8,1.69,-41.11,-40.97,0,*7B
1486983702.21,19540,11.13,74232.5,1.73,-41.49,-41.67,0,*7D
1486983703.44,19541,11.13,74238.0,1.71,-42.37,-42.51,0,*72
1486983704.69,19542,11.13,74238.5,1.71,-42.37,-42.57,0,*77
1486983705.97,19543,11.13,74238.0,1.71,-42.19,-42.31,0,*7A
1486983707.23,19544,11.13,74236.5,1.73,-42.31,-42.51,0,*73
1486983708.5,19545,11.13,74234.5,1.71,-41.93,-41.93,0,*76
1486983709.78,19546,11.13,74238.8,1.71,-41.35,-41.55,0,*73
1486983711.01,19547,11.13,74236.5,1.71,-41.73,-41.99,0,*70
1486983712.23,19548,11.13,74238.0,1.73,-43.15,-43.35,0,*7B
1486983713.46,19549,11.13,74234.8,1.71,-42.13,-42.51,0,*7C
1486983714.69,19550,11.13,74236.0,1.71,-41.41,-41.61,0,*70
1486983715.91,19551,11.13,74236.0,1.73,-40.53,-40.65,0,*74
1486983717.18,19552,11.13,74236.0,1.73,-41.67,-41.93,0,*79
1486983718.41,19553,11.13,74236.3,1.75,-42.75,-43.09,0,*7F
1486983719.64,19554,11.13,74234.5,1.75,-43.55,-43.75,0,*70
1486983720.87,19555,11.13,74234.8,1.75,-44.21,-44.41,0,*75
1486983722.12,19556,11.13,74238.8,1.73,-43.49,-43.55,0,*7B
1486983723.38,19557,11.13,74232.8,1.71,-42.19,-42.37,0,*79
1486983724.63,19558,11.13,74236.5,1.71,-42.95,-43.15,0,*73
1486983725.9,19559,11.13,74236.8,1.73,-42.45,-42.57,0,*7A
1486983727.15,19560,11.13,74234.8,1.71,-43.75,-43.81,0,*7A
1486983728.41,19561,11.13,74234.8,1.71,-42.57,-42.75,0,*70
1486983729.63,19562,11.13,74238.0,1.69,-42.83,-43.15,0,*74
1486983730.85,19563,11.13,74238.3,1.69,-41.73,-41.81,0,*76
1486983732.07,19564,11.13,74234.5,1.69,-41.73,-41.93,0,*72
1486983733.3,19565,11.13,74236.0,1.69,-41.41,-41.55,0,*78
1486983734.55,19566,11.13,74238.3,1.73,-41.55,-41.73,0,*71
1486983735.79,19567,11.13,74238.3,1.71,-41.73,-41.93,0,*78
1486983737.04,19568,11.13,74238.8,1.71,-41.73,-41.81,0,*74
1486983738.29,19569,11.13,74234.0,1.71,-41.55,-42.13,0,*79
1486983739.56,19570,11.13,74236.0,1.71,-43.81,-44.21,0,*7D
1486983740.85,19571,11.13,74236.8,1.71,-42.31,-42.31,0,*71
1486983742.07,19572,11.13,74240.5,1.73,-42.13,-42.25,0,*75
1486983743.32,19573,11.13,74234.8,1.71,-42.83,-43.15,0,*7D
1486983744.58,19574,11.13,74236.5,1.69,-42.83,-42.95,0,*7A
1486983745.82,19575,11.13,74238.8,1.69,-42.57,-42.83,0,*75
1486983747.05,19576,11.13,74238.5,1.67,-43.41,-43.61,0,*73
1486983748.27,19577,11.13,74238.5,1.69,-43.35,-43.55,0,*78
1486983749.54,19578,11.13,74234.0,1.67,-43.21,-43.29,0,*77
1486983750.79,19579,11.13,74238.5,1.67,-42.37,-42.57,0,*78
1486983752.01,19580,11.13,74238.3,1.69,-41.55,-41.73,0,*72
1486983753.23,19581,11.13,74232.8,1.69,-41.61,-41.81,0,*79
1486983754.47,19582,11.13,74238.0,1.69,-42.19,-42.51,0,*78
1486983755.72,19583,11.13,74234.5,1.69,-41.35,-41.55,0,*73
1486983756.96,19584,11.13,74234.8,1.69,-40.91,-40.97,0,*74
1486983758.22,19585,11.13,74232.5,1.71,-42.95,-43.35,0,*71
1486983759.45,19586,11.13,74236.3,1.71,-42.51,-42.75,0,*7F
1486983760.7,19587,11.13,74238.5,1.71,-41.93,-42.13,0,*73
1486983761.92,19588,11.13,74238.5,1.71,-42.13,-42.37,0,*71
1486983763.18,19589,11.13,74236.3,1.71,-42.57,-42.75,0,*76
1486983764.41,19590,11.13,74236.5,1.71,-42.37,-42.63,0,*7F
1486983765.64,19591,11.13,74236.8,1.71,-42.51,-42.75,0,*79
1486983766.87,19592,11.13,74234.5,1.71,-42.51,-42.63,0,*7D
1486983768.12,19593,11.13,74238.0,1.71,-43.41,-43.81,0,*71
1486983769.36,19594,11.13,74236.5,1.69,-43.55,-43.81,0,*7A
1486983770.59,19595,11.13,74236.8,1.69,-41.99,-42.19,0,*79
1486983771.81,19596,11.13,74238.8,1.69,-41.81,-41.99,0,*78
1486983773.04,19597,11.13,74236.5,1.69,-41.81,-41.99,0,*79
1486983774.26,19598,11.13,74238.0,1.69,-43.21,-43.41,0,*79
1486983775.5,19599,11.13,74236.5,1.69,-42.75,-42.95,0,*70
1486983776.72,19600,11.13,74234.8,1.69,-42.19,-42.37,0,*71
1486983777.98,19601,11.13,74236.5,1.71,-42.13,-42.19,0,*7F
1486983779.2,19602,11.13,74234.5,1.69,-42.19,-42.37,0,*73
1486983780.41,19603,11.13,74234.3,1.69,-42.51,-42.63,0,*7F
1486983781.67,19604,11.13,74234.0,1.71,-42.95,-43.15,0,*79
1486983782.91,19605,11.13,74236.5,1.69,-41.81,-41.93,0,*7B
1486983784.17,19606,11.13,74234.8,1.69,-41.23,-41.23,0,*7B
1486983785.4,19607,11.13,74234.0,1.69,-41.93,-42.63,0,*76
1486983786.65,19608,11.13,74236.3,1.71,-43.01,-43.21,0,*7E
1486983787.9,19609,11.13,74238.0,1.71,-42.75,-42.83,0,*74
1486983789.18,19610,11.13,74234.5,1.73,-41.35,-41.55,0,*71
1486983790.41,19611,11.13,74234.5,1.71,-42.63,-43.01,0,*71
1486983791.69,19612,11.13,74234.8,1.71,-41.55,-41.55,0,*77
1486983792.93,19613,11.13,74238.8,1.73,-41.73,-41.93,0,*7A
1486983794.18,19614,11.13,74236.3,1.71,-42.51,-42.57,0,*77
1486983795.43,19615,11.13,74232.3,1.71,-41.81,-41.99,0,*79
1486983796.68,19616,11.13,74232.3,1.73,-41.55,-41.87,0,*7E
1486983797.94,19617,11.13,74234.8,1.73,-41.67,-41.73,0,*75
1486983799.19,19618,11.13,74238.3,1.73,-41.49,-41.67,0,*73
1486983800.44,19619,11.13,74236.8,1.73,-42.75,-43.09,0,*74
1486983801.7,19620,11.13,74240.0,1.71,-42.63,-42.95,0,*7F
1486983802.97,19621,11.13,74238.5,1.73,-41.67,-41.93,0,*7E
1486983804.2,19622,11.13,74232.5,1.73,-41.49,-41.73,0,*7F
1486983805.47,19623,11.13,74232.3,1.73,-42.31,-42.57,0,*77
1486983806.72,19624,11.13,74238.0,1.73,-41.67,-41.73,0,*75
1486983807.98,19625,11.13,74234.5,1.73,-41.67,-41.87,0,*7F
1486983809.23,19626,11.13,74238.8,1.73,-42.13,-42.45,0,*71
1486983810.44,19627,11.13,74234.5,1.75,-40.91,-41.11,0,*7C
1486983811.72,19628,11.13,74236.0,1.77,-40.97,-40.85,0,*7B
1486983812.93,19629,11.13,74232.8,1.75,-42.75,-43.15,0,*7C
1486983814.15,19630,11.13,74234.5,1.75,-42.57,-42.89,0,*70
1486983815.41,19631,11.13,74238.8,1.75,-42.31,-42.45,0,*71
1486983816.67,19632,11.13,74234.5,1.75,-41.35,-41.55,0,*77
1486983817.92,19633,11.13,74236.5,1.77,-41.49,-41.81,0,*76
1486983819.15,19634,11.13,74238.0,1.75,-43.49,-43.81,0,*73
1486983820.4,19635,11.13,74236.3,1.77,-42.69,-43.01,0,*7B
1486983821.65,19636,11.13,74238.3,1.75,-42.31,-42.45,0,*76
1486983822.91,19637,11.13,74232.3,1.75,-42.95,-43.29,0,*72
1486983824.16,19638,11.13,74232.5,1.75,-42.45,-42.57,0,*78
1486983825.41,19639,11.13,74232.8,1.73,-43.75,-44.01,0,*78
1486983826.66,19640,11.13,74232.0,1.73,-42.51,-42.57,0,*74
1486983827.93,19641,11.13,74234.3,1.73,-41.93,-41.93,0,*73
1486983829.21,19642,11.13,74236.5,1.73,-42.95,-43.29,0,*76
1486983830.46,19643,11.13,74234.5,1.73,-43.09,-43.15,0,*7C
1486983831.72,19644,11.13,74236.0,1.71,-42.95,-43.01,0,*78
1486983833.0,19645,11.13,74236.8,1.73,-42.31,-42.31,0,*77
1486983834.23,19646,11.13,74236.3,1.71,-42.75,-43.01,0,*74
1486983835.45,19647,11.13,74236.3,1.71,-43.15,-43.01,0,*72
1486983836.7,19648,11.13,74234.3,1.71,-42.83,-43.15,0,*76
1486983837.93,19649,11.13,74234.3,1.71,-43.01,-43.01,0,*79
1486983839.18,19650,11.13,74236.5,1.71,-43.55,-43.75,0,*73
1486983840.43,19651,11.13,74236.0,1.67,-42.63,-42.83,0,*79
1486983841.67,19652,11.13,74232.3,1.69,-41.81,-41.93,0,*79
1486983842.91,19653,11.13,74236.0,1.69,-42.13,-42.31,0,*7B
1486983844.11,19654,11.13,74234.3,1.69,-43.15,-43.35,0,*7E
1486983845.34,19655,11.13,74238.0,1.69,-42.13,-42.31,0,*7D
1486983846.59,19656,11.13,74234.8,1.71,-41.93,-41.99,0,*7D
1486983847.84,19657,11.13,74236.0,1.71,-41.55,-41.61,0,*71
1486983849.13,19658,11.13,74236.3,1.71,-42.19,-42.31,0,*73
1486983850.36,19659,11.13,74238.5,1.71,-42.63,-42.63,0,*78
1486983851.6,19660,11.13,74234.8,1.71,-43.15,-43.21,0,*75
1486983852.83,19661,11.13,74236.8,1.71,-42.75,-43.01,0,*71
1486983854.11,19662,11.13,74238.5,1.71,-44.01,-44.01,0,*70
1486983855.36,19663,11.13,74236.3,1.71,-42.31,-42.37,0,*77
1486983856.58,19664,11.13,74234.0,1.69,-43.15,-43.21,0,*78
1486983857.8,19665,11.13,74238.0,1.67,-42.63,-42.89,0,*74
1486983859.03,19666,11.13,74236.0,1.69,-42.63,-42.95,0,*74
1486983860.26,19667,11.13,74238.3,1.67,-43.01,-43.41,0,*76
1486983861.53,19668,11.13,74238.3,1.67,-42.83,-42.83,0,*7D
1486983862.8,19669,11.13,74232.0,1.67,-42.05,-42.05,0,*7C
1486983864.02,19670,11.13,74236.3,1.67,-41.61,-41.61,0,*74
1486983865.24,19671,11.13,74234.5,1.69,-43.21,-43.35,0,*7E
1486983866.48,19672,11.13,74236.0,1.69,-42.13,-42.31,0,*78
1486983867.72,19673,11.13,74234.8,1.67,-41.87,-41.81,0,*71
1486983868.95,19674,11.13,74234.8,1.67,-41.41,-41.49,0,*78
1486983870.19,19675,11.13,74234.8,1.69,-41.81,-41.93,0,*7C
1486983871.42,19676,11.13,74232.5,1.69,-43.35,-43.55,0,*7A
1486983872.64,19677,11.13,74232.3,1.69,-42.75,-42.83,0,*74
1486983873.88,19678,11.13,74236.5,1.69,-42.57,-42.83,0,*7B
1486983875.13,19679,11.13,74236.0,1.67,-42.19,-42.37,0,*71
1486983876.38,19680,11.13,74234.3,1.67,-42.83,-42.89,0,*71
1486983877.63,19681,11.13,74232.5,1.67,-42.45,-42.63,0,*7E
1486983878.86,19682,11.13,74236.0,1.69,-42.31,-42.51,0,*71
1486983880.05,19683,11.13,74234.8,1.69,-41.99,-42.13,0,*77
1486983881.31,19684,11.13,74238.8,1.69,-42.83,-42.95,0,*76
1486983882.56,19685,11.13,74234.3,1.67,-42.57,-42.63,0,*79
1486983883.76,19686,11.13,74236.3,1.69,-43.15,-43.35,0,*71
1486983885.0,19687,11.13,74234.8,1.67,-43.61,-43.81,0,*72
1486983886.25,19688,11.13,74236.3,1.67,-42.83,-43.01,0,*78
1486983887.5,19689,11.13,74234.0,1.67,-43.01,-43.21,0,*70
1486983888.75,19690,11.13,74234.5,1.65,-42.69,-42.69,0,*78
1486983889.95,19691,11.13,74232.3,1.65,-41.87,-41.99,0,*76
1486983891.17,19692,11.13,74234.8,1.65,-41.23,-41.29,0,*70
1486983892.4,19693,11.13,74234.0,1.69,-41.55,-41.73,0,*73
1486983893.64,19694,11.13,74232.0,1.67,-41.87,-42.05,0,*77
1486983894.89,19695,11.13,74234.8,1.67,-41.99,-42.05,0,*79
1486983896.14,19696,11.13,74234.8,1.69,-41.55,-41.81,0,*7B
1486983897.36,19697,11.13,74232.3,1.69,-41.61,-41.93,0,*7E
1486983898.58,19698,11.13,74232.5,1.69,-42.31,-42.37,0,*7A
1486983899.83,19699,11.13,74232.8,1.71,-41.93,-41.99,0,*7E
1486983901.08,19700,11.13,74234.0,1.71,-41.81,-41.99,0,*7C
1486983902.34,19701,11.13,74234.5,1.71,-41.17,-41.23,0,*73
1486983903.62,19702,11.13,74230.8,1.73,-41.55,-41.67,0,*74
1486983904.85,19703,11.13,74232.8,1.71,-41.41,-41.73,0,*77
1486983906.08,19704,11.13,74232.8,1.71,-42.37,-42.63,0,*70
1486983907.32,19705,11.13,74232.0,1.73,-42.57,-42.89,0,*71
1486983908.57,19706,11.13,74232.5,1.71,-43.15,-43.21,0,*74
1486983909.82,19707,11.13,74234.8,1.71,-43.61,-43.81,0,*7C
1486983911.08,19708,11.13,74232.3,1.71,-43.41,-43.55,0,*78
1486983912.33,19709,11.13,74232.5,1.71,-43.01,-43.21,0,*7E
1486983913.6,19710,11.13,74232.5,1.67,-42.45,-42.69,0,*7D
1486983914.85,19711,11.13,74234.8,1.67,-42.37,-42.69,0,*79
1486983916.06,19712,11.13,74236.5,1.69,-43.01,-43.41,0,*7B
1486983917.29,19713,11.13,74234.5,1.69,-43.41,-43.55,0,*7B
1486983918.56,19714,11.13,74238.5,1.67,-42.57,-42.69,0,*7A
1486983919.83,19715,11.13,74234.8,1.67,-43.67,-44.13,0,*72
1486983921.07,19716,11.13,74234.5,1.65,-44.47,-44.67,0,*75
1486983922.27,19717,11.13,74232.0,1.65,-42.51,-42.63,0,*77
1486983923.49,19718,11.13,74234.5,1.65,-41.87,-42.05,0,*70
1486983924.69,19719,11.13,74234.5,1.65,-43.41,-43.61,0,*7A
1486983925.92,19720,11.13,74234.3,1.61,-43.95,-44.33,0,*7D
1486983927.15,19721,11.13,74234.0,1.61,-43.29,-43.49,0,*71
1486983928.38,19722,11.13,74232.8,1.61,-42.25,-42.31,0,*71
1486983929.6,19723,11.13,74234.8,1.65,-42.57,-42.89,0,*72
1486983930.82,19724,11.13,74232.3,1.65,-42.05,-42.25,0,*74
1486983932.05,19725,11.13,74236.0,1.61,-42.25,-42.45,0,*75
1486983933.28,19726,11.13,74232.0,1.61,-43.55,-43.95,0,*7C
1486983934.5,19727,11.13,74234.3,1.61,-43.55,-43.75,0,*73
1486983935.73,19728,11.13,74232.5,1.61,-43.09,-43.15,0,*73
1486983936.99,19729,11.13,74238.0,1.61,-41.93,-42.05,0,*73
1486983938.24,19730,11.13,74234.8,1.61,-42.69,-42.95,0,*74
1486983939.46,19731,11.13,74232.3,1.65,-42.37,-42.45,0,*77
1486983940.68,19732,11.13,74234.5,1.61,-41.73,-41.93,0,*7B
1486983941.91,19733,11.13,74234.5,1.65,-42.45,-42.63,0,*74
1486983943.13,19734,11.13,74234.5,1.65,-42.37,-42.57,0,*71
1486983944.36,19735,11.13,74234.8,1.61,-42.31,-42.51,0,*74
1486983945.56,19736,11.13,74234.5,1.61,-41.87,-42.25,0,*7A
1486983946.76,19737,11.13,74234.5,1.65,-41.99,-41.99,0,*74
1486983948.0,19738,11.13,74232.8,1.65,-42.45,-42.69,0,*75
1486983949.2,19739,11.13,74234.0,1.65,-43.41,-43.61,0,*78
1486983950.43,19740,11.13,74234.5,1.61,-43.55,-43.87,0,*7F
1486983951.63,19741,11.13,74234.0,1.61,-43.35,-43.49,0,*7A
1486983952.88,19742,11.13,74238.5,1.59,-43.35,-43.55,0,*7F
1486983954.14,19743,11.13,74232.8,1.59,-42.83,-43.01,0,*73
1486983955.42,19744,11.13,74234.0,1.59,-42.83,-42.95,0,*78
1486983956.67,19745,11.13,74236.0,1.59,-42.57,-42.75,0,*7E
1486983957.93,19746,11.13,74232.8,1.59,-41.93,-41.99,0,*77
1486983959.2,19747,11.13,74232.8,1.59,-42.57,-42.83,0,*75
1486983960.44,19748,11.13,74232.0,1.59,-42.51,-42.75,0,*75
1486983961.67,19749,11.13,74230.8,1.59,-42.75,-43.01,0,*70
1486983962.92,19750,11.13,74232.0,1.59,-42.31,-42.51,0,*7C
1486983964.21,19751,11.13,74232.8,1.59,-41.93,-42.19,0,*7A
1486983965.41,19752,11.13,74228.8,1.61,-42.13,-42.25,0,*76
1486983966.64,19753,11.13,74234.5,1.65,-41.81,-41.87,0,*70
1486983967.86,19754,11.13,74232.8,1.61,-41.93,-42.13,0,*7E
1486983969.07,19755,11.13,74234.3,1.61,-43.15,-43.49,0,*7D
1486983970.29,19756,11.13,74236.8,1.65,-43.41,-43.67,0,*77
1486983971.52,19757,11.13,74234.5,1.61,-42.51,-42.69,0,*7D
1486983972.77,19758,11.13,74232.0,1.61,-42.45,-42.69,0,*77
1486983973.97,19759,11.13,74234.3,1.61,-43.35,-43.49,0,*73
1486983975.2,19760,11.13,74232.3,1.61,-42.63,-42.69,0,*78
1486983976.42,19761,11.13,74234.5,1.61,-42.51,-42.45,0,*76
1486983977.66,19762,11.13,74234.8,1.59,-42.75,-43.01,0,*79
1486983978.93,19763,11.13,74234.3,1.59,-42.69,-42.83,0,*7E
1486983980.19,19764,11.13,74232.8,1.59,-43.01,-43.21,0,*7F
1486983981.4,19765,11.13,74236.8,1.61,-43.49,-43.49,0,*77
1486983982.68,19766,11.13,74230.0,1.59,-42.95,-43.55,0,*72
1486983983.91,19767,11.13,74232.3,1.57,-43.61,-43.81,0,*7E
1486983985.16,19768,11.13,74232.0,1.59,-42.57,-42.75,0,*71
1486983986.42,19769,11.13,74234.0,1.59,-42.83,-43.15,0,*7E
1486983987.68,19770,11.13,74238.0,1.59,-42.95,-43.15,0,*71
1486983988.94,19771,11.13,74234.5,1.59,-43.01,-43.21,0,*7B
1486983990.18,19772,11.13,74232.8,1.57,-42.57,-42.83,0,*7D
1486983991.43,19773,11.13,74234.5,1.59,-42.37,-42.69,0,*70
1486983992.69,19774,11.13,74236.3,1.59,-43.81,-43.95,0,*79
1486983993.91,19775,11.13,74234.8,1.57,-43.95,-44.01,0,*79
1486983995.12,19776,11.13,74232.0,1.57,-43.61,-43.95,0,*7B
1486983996.35,19777,11.13,74234.3,1.57,-43.95,-44.21,0,*79
1486983997.62,19778,11.13,74234.0,1.55,-42.45,-42.57,0,*7F
1486983998.88,19779,11.13,74234.3,1.55,-43.01,-43.21,0,*7F
1486984000.16,19780,11.13,74234.5,1.55,-43.67,-43.81,0,*73
1486984001.42,19781,11.13,74234.8,1.55,-43.09,-43.41,0,*76
1486984002.68,19782,11.13,74232.5,1.53,-44.73,-44.93,0,*71
1486984003.9,19783,11.13,74236.0,1.53,-43.21,-43.61,0,*7A
1486984005.16,19784,11.13,74234.0,1.51,-41.93,-42.13,0,*70
1486984006.41,19785,11.13,74234.3,1.51,-41.55,-41.87,0,*75
1486984007.61,19786,11.13,74234.3,1.53,-42.37,-42.37,0,*7B
1486984008.87,19787,11.13,74234.0,1.55,-42.19,-42.25,0,*73
1486984010.1,19788,11.13,74234.3,1.53,-42.57,-42.89,0,*76
1486984011.38,19789,11.13,74236.8,1.55,-41.81,-41.67,0,*7A
1486984012.64,19790,11.13,74230.0,1.55,-41.61,-41.81,0,*74
1486984013.9,19791,11.13,74232.5,1.55,-42.45,-42.63,0,*7F
1486984015.15,19792,11.13,74232.5,1.55,-42.19,-42.37,0,*74
1486984016.41,19793,11.13,74232.5,1.55,-41.49,-41.67,0,*75
1486984017.66,19794,11.13,74238.3,1.55,-42.05,-42.25,0,*7C
1486984018.94,19795,11.13,74236.3,1.55,-42.57,-42.83,0,*76
1486984020.14,19796,11.13,74232.8,1.57,-42.37,-42.37,0,*7E
1486984021.39,19797,11.13,74234.3,1.57,-42.69,-42.95,0,*7C
1486984022.61,19798,11.13,74236.0,1.57,-41.73,-41.93,0,*7E
1486984023.81,19799,11.13,74234.8,1.57,-41.29,-41.17,0,*7C
1486984025.06,19800,11.13,74236.5,1.57,-41.55,-41.35,0,*78
1486984026.29,19801,11.13,74234.3,1.61,-42.31,-42.63,0,*7D
1486984027.52,19802,11.13,74238.0,1.59,-43.41,-43.75,0,*75
1486984028.76,19803,11.13,74236.8,1.57,-42.13,-42.19,0,*77
1486984030.01,19804,11.13,74236.0,1.57,-42.69,-42.95,0,*79
1486984031.29,19805,11.13,74232.8,1.59,-42.31,-42.69,0,*78
1486984032.5,19806,11.13,74236.3,1.57,-42.51,-42.75,0,*7E
1486984033.75,19807,11.13,74236.3,1.59,-41.93,-42.13,0,*7C
1486984035.0,19808,11.13,74232.8,1.59,-42.37,-42.57,0,*7E
1486984036.28,19809,11.13,74234.0,1.59,-42.83,-42.95,0,*7E
1486984037.53,19810,11.13,74234.3,1.59,-42.51,-42.57,0,*77
1486984038.79,19811,11.13,74232.3,1.59,-42.51,-42.69,0,*7B
1486984040.0,19812,11.13,74238.8,1.57,-43.01,-43.35,0,*7A
1486984041.26,19813,11.13,74238.5,1.59,-42.75,-42.95,0,*7C
1486984042.48,19814,11.13,74232.5,1.57,-42.83,-43.15,0,*75
1486984043.71,19815,11.13,74234.8,1.57,-42.75,-42.83,0,*73
1486984044.93,19816,11.13,74232.5,1.57,-42.83,-43.01,0,*72
1486984046.16,19817,11.13,74238.0,1.59,-42.75,-43.01,0,*74
1486984047.39,19818,11.13,74232.5,1.57,-42.75,-42.95,0,*79
1486984048.62,19819,11.13,74232.5,1.57,-42.31,-42.51,0,*70
1486984049.82,19820,11.13,74236.5,1.57,-43.61,-43.95,0,*77
1486984051.05,19821,11.13,74232.3,1.57,-42.51,-42.83,0,*72
1486984052.25,19822,11.13,74234.0,1.57,-43.15,-43.41,0,*7F
1486984053.49,19823,11.13,74232.3,1.57,-43.55,-43.81,0,*76
1486984054.7,19824,11.13,74232.5,1.57,-43.15,-43.41,0,*79
1486984055.93,19825,11.13,74236.8,1.55,-42.89,-43.01,0,*7A
1486984057.16,19826,11.13,74232.5,1.53,-42.89,-43.09,0,*77
1486984058.43,19827,11.13,74236.0,1.55,-42.45,-42.57,0,*7A
1486984059.69,19828,11.13,74236.8,1.55,-41.35,-41.49,0,*7D
1486984060.95,19829,11.13,74236.8,1.55,-41.49,-41.67,0,*7B
1486984062.2,19830,11.13,74234.8,1.57,-42.69,-42.95,0,*7E
1486984063.41,19831,11.13,74238.5,1.57,-44.79,-44.99,0,*72
1486984064.64,19832,11.13,74234.8,1.57,-42.75,-42.95,0,*71
1486984065.89,19833,11.13,74232.8,1.55,-43.21,-43.49,0,*72
1486984067.14,19834,11.13,74236.0,1.55,-44.33,-44.53,0,*7D
1486984068.36,19835,11.13,74236.5,1.53,-43.67,-43.87,0,*72
1486984069.63,19836,11.13,74238.0,1.55,-43.09,-43.41,0,*75
1486984070.85,19837,11.13,74236.8,1.53,-44.27,-44.47,0,*78
1486984072.1,19838,11.13,74232.3,1.53,-42.45,-42.57,0,*72
1486984073.33,19839,11.13,74234.3,1.53,-41.99,-42.19,0,*7B
1486984074.56,19840,11.13,74238.0,1.53,-42.05,-42.25,0,*7C
1486984075.81,19841,11.13,74238.0,1.55,-42.57,-42.63,0,*7E
1486984077.06,19842,11.13,74238.0,1.53,-42.45,-42.57,0,*7F
1486984078.32,19843,11.13,74236.3,1.55,-41.99,-42.05,0,*7D
1486984079.57,19844,11.13,74234.8,1.53,-43.09,-43.29,0,*78
1486984080.85,19845,11.13,74236.5,1.55,-42.83,-43.09,0,*7E
1486984082.06,19846,11.13,74234.8,1.53,-43.41,-43.61,0,*7A
1486984083.26,19847,11.13,74234.0,1.53,-42.63,-42.75,0,*7E
1486984084.52,19848,11.13,74232.8,1.55,-42.45,-42.63,0,*74
1486984085.76,19849,11.13,74232.0,1.53,-43.61,-43.67,0,*71
1486984086.99,19850,11.13,74232.0,1.53,-42.83,-43.01,0,*74
1486984088.23,19851,11.13,74232.8,1.53,-43.81,-44.01,0,*71
1486984089.51,19852,11.13,74238.3,1.55,-43.81,-44.01,0,*74
1486984090.74,19853,11.13,74238.5,1.51,-42.51,-42.89,0,*7B
1486984091.97,19854,11.13,74238.3,1.51,-42.63,-42.89,0,*7D
1486984093.21,19855,11.13,74234.5,1.51,-43.87,-44.13,0,*72
1486984094.44,19856,11.13,74236.0,1.53,-42.63,-42.83,0,*77
1486984095.73,19857,11.13,74240.3,1.51,-42.95,-43.09,0,*7E
1486984096.99,19858,11.13,74234.8,1.51,-42.13,-42.31,0,*75
1486984098.22,19859,11.13,74234.8,1.49,-42.95,-43.01,0,*71
1486984099.45,19860,11.13,74236.0,1.51,-43.75,-44.07,0,*7C
1486984100.68,19861,11.13,74234.8,1.49,-42.69,-42.75,0,*7B
1486984101.96,19862,11.13,74232.8,1.51,-42.83,-43.09,0,*7F
1486984103.17,19863,11.06,74234.5,1.49,-43.41,-43.41,0,*74
1486984104.43,19864,11.13,74236.3,1.51,-42.45,-42.89,0,*7A